Weather History for Carbondale, IL

Change the Weather History Date:

Friday, March 8, 2013

  Actual Average Record
Temperature  
Mean Temperature 42 °F -  
Max Temperature 55 °F 56 °F 113 °F (1999)
Min Temperature 28 °F 32 °F 6 °F (1943)
Degree Days  
Heating Degree Days 24    
Moisture  
Dew Point 29 °F    
Average Humidity 63    
Maximum Humidity 88    
Minimum Humidity 40    
Precipitation  
Precipitation 0.00 in - - ()
Sea Level Pressure  
Sea Level Pressure 30.36 in    
Wind  
Wind Speed 4 mph (East)    
Max Wind Speed 12 mph    
Max Gust Speed -    
Visibility 9 miles    
Events      
Averages and records for this station are not official NWS values.
T = Trace of Precipitation, MM = Missing Value Source: NWS Daily Summary

Daily Weather History Graph

Daily Weather History Graph

Search for Another Location

Airport:

Trip Planner

Search our weather history database for the weather conditions in past years. The results will help you decide how hot, cold, wet, or windy it might be!

Date:

Astronomy

Mar. 08, 2013 Rise Set
Actual Time 6:18 AM CST 5:57 PM CST
Civil Twilight 5:51 AM CST 6:24 PM CST
Nautical Twilight 5:21 AM CST 6:54 PM CST
Astronomical Twilight 4:51 AM CST 7:24 PM CST
Moon 3:59 AM CST (3/8) 2:55 PM CST (3/8)
Length of Visible Light 12h 32m
Length of Day
11h 39m
Waning Crescent, 11% of the Moon is Illuminated
Mar 8
Waning Crescent
Mar 11
New
Mar 19
First Quarter
Mar 27
Full
Apr 2
Last Quarter

Hourly Weather History & Observations

Time (CST) Temp. Windchill Dew Point Humidity Pressure Visibility Wind Dir Wind Speed Gust Speed Precip Events Conditions
12:52 AM 30.9 °F - 26.1 °F 82% 30.40 in 10.0 mi Calm Calm - N/A   Clear
1:52 AM 30.9 °F 27.5 °F 25.0 °F 79% 30.39 in 10.0 mi East 3.5 mph - N/A   Clear
2:52 AM 28.9 °F - 25.0 °F 85% 30.40 in 8.0 mi Calm Calm - N/A   Clear
3:52 AM 28.0 °F - 25.0 °F 88% 30.40 in 6.0 mi Calm Calm - N/A   Clear
4:52 AM 30.0 °F 26.5 °F 25.0 °F 82% 30.42 in 7.0 mi ENE 3.5 mph - N/A   Clear
5:52 AM 28.0 °F - 25.0 °F 88% 30.44 in 5.0 mi Calm Calm - N/A   Clear
6:52 AM 30.0 °F - 24.1 °F 79% 30.43 in 3.0 mi Calm Calm - N/A   Haze
7:52 AM 34.0 °F 28.8 °F 28.0 °F 79% 30.44 in 7.0 mi ESE 5.8 mph - N/A   Clear
8:52 AM 37.9 °F 30.5 °F 28.9 °F 70% 30.47 in 10.0 mi ESE 11.5 mph - N/A   Clear
10:52 AM 43.0 °F 38.2 °F 30.0 °F 60% 30.45 in 10.0 mi SE 8.1 mph - N/A   Clear
11:52 AM 46.9 °F - 30.0 °F 52% 30.40 in 10.0 mi East 8.1 mph - N/A   Clear
12:52 PM 51.1 °F - 30.9 °F 46% 30.36 in 10.0 mi ESE 10.4 mph - N/A   Clear
1:52 PM 53.1 °F - 28.9 °F 40% 30.33 in 10.0 mi East 10.4 mph - N/A   Clear
2:52 PM 53.1 °F - 28.9 °F 40% 30.32 in 10.0 mi East 8.1 mph - N/A   Clear
3:52 PM 55.0 °F - 30.9 °F 40% 30.31 in 10.0 mi East 8.1 mph - N/A   Clear
4:52 PM 53.1 °F - 32.0 °F 45% 30.31 in 10.0 mi East 6.9 mph - N/A   Clear
5:52 PM 50.0 °F - 32.0 °F 50% 30.30 in 10.0 mi East 5.8 mph - N/A   Clear
6:52 PM 48.0 °F - 30.9 °F 52% 30.29 in 10.0 mi East 8.1 mph - N/A   Clear
7:52 PM 46.9 °F - 30.9 °F 54% 30.29 in 10.0 mi East 6.9 mph - N/A   Clear
8:52 PM 46.0 °F 41.9 °F 30.9 °F 56% 30.28 in 10.0 mi East 8.1 mph - N/A   Clear
9:52 PM 46.0 °F 42.5 °F 32.0 °F 58% 30.29 in 10.0 mi East 6.9 mph - N/A   Clear
10:52 PM 45.0 °F 41.2 °F 32.0 °F 60% 30.27 in 10.0 mi East 6.9 mph - N/A   Clear
11:52 PM 44.1 °F 41.5 °F 30.0 °F 58% 30.25 in 10.0 mi SE 4.6 mph - N/A   Clear